Time,TemperatureF,DewpointF,PressureIn,WindDirection,WindDirectionDegrees,WindSpeedMPH,WindSpeedGustMPH,Humidity,HourlyPrecipIn,Conditions,Clouds,dailyrainin,SoftwareType,DateUTC
2013-01-27 00:01:00,45.0,37.0,29.99,NNW,338,0.0,0.0,73,0.00,,,0.00,,2013-01-27 08:01:00,
2013-01-27 00:11:00,45.0,37.0,29.99,NNW,338,0.0,0.0,73,0.00,,,0.00,,2013-01-27 08:11:00,
2013-01-27 00:21:00,45.0,37.0,29.99,NW,315,0.0,2.0,74,0.00,,,0.00,,2013-01-27 08:21:00,
2013-01-27 00:31:00,45.0,37.0,30.00,NNW,338,0.0,0.0,74,0.00,,,0.00,,2013-01-27 08:31:00,
2013-01-27 00:41:00,45.0,37.0,30.00,NNW,338,0.0,0.0,74,0.00,,,0.00,,2013-01-27 08:41:00,
2013-01-27 00:52:00,45.0,38.0,30.00,NNW,338,0.0,0.0,75,0.00,,,0.00,,2013-01-27 08:52:00,
2013-01-27 01:02:00,45.0,38.0,30.00,ESE,113,0.0,0.0,75,0.00,,,0.00,,2013-01-27 09:02:00,
2013-01-27 01:11:00,45.0,38.0,30.00,ESE,113,0.0,0.0,75,0.00,,,0.00,,2013-01-27 09:11:00,
2013-01-27 01:21:00,44.0,37.0,30.00,SSW,203,0.0,0.0,75,0.00,,,0.00,,2013-01-27 09:21:00,
2013-01-27 01:31:00,45.0,38.0,30.01,SE,135,0.0,3.0,76,0.00,,,0.00,,2013-01-27 09:31:00,
2013-01-27 01:41:00,45.0,38.0,30.01,SE,135,0.0,3.0,76,0.00,,,0.00,,2013-01-27 09:41:00,
2013-01-27 01:52:00,45.0,38.0,30.01,SE,135,0.0,3.0,76,0.00,,,0.00,,2013-01-27 09:52:00,
2013-01-27 02:01:00,45.0,38.0,30.01,ESE,113,0.0,0.0,77,0.00,,,0.00,,2013-01-27 10:01:00,
2013-01-27 02:11:00,45.0,38.0,30.01,SE,135,0.0,0.0,77,0.02,,,0.02,,2013-01-27 10:11:00,
2013-01-27 02:21:00,45.0,38.0,30.01,SE,135,0.0,0.0,77,0.02,,,0.02,,2013-01-27 10:21:00,
2013-01-27 02:31:00,45.0,38.0,30.01,SE,135,0.0,0.0,77,0.02,,,0.02,,2013-01-27 10:31:00,
2013-01-27 02:41:00,45.0,38.0,30.01,SE,135,0.0,0.0,77,0.02,,,0.02,,2013-01-27 10:41:00,
2013-01-27 02:51:00,44.0,38.0,30.02,SE,135,0.0,0.0,78,0.02,,,0.02,,2013-01-27 10:51:00,
2013-01-27 03:01:00,44.0,38.0,30.02,SE,135,0.0,0.0,78,0.02,,,0.02,,2013-01-27 11:01:00,
2013-01-27 03:11:00,44.0,38.0,30.02,SE,135,0.0,0.0,78,0.02,,,0.02,,2013-01-27 11:11:00,
2013-01-27 03:21:00,43.0,37.0,30.02,SE,135,0.0,0.0,78,0.00,,,0.02,,2013-01-27 11:21:00,
2013-01-27 03:31:00,43.0,36.0,30.02,SE,135,0.0,0.0,77,0.00,,,0.02,,2013-01-27 11:31:00,
2013-01-27 03:42:00,43.0,36.0,30.02,SE,135,0.0,0.0,77,0.00,,,0.02,,2013-01-27 11:42:00,
2013-01-27 03:52:00,42.0,36.0,30.02,SE,135,0.0,0.0,78,0.00,,,0.02,,2013-01-27 11:52:00,
2013-01-27 04:02:00,41.0,34.0,30.03,SE,135,0.0,0.0,77,0.00,,,0.02,,2013-01-27 12:02:00,
2013-01-27 04:11:00,41.0,34.0,30.03,SE,135,0.0,0.0,77,0.00,,,0.02,,2013-01-27 12:11:00,
2013-01-27 04:21:00,40.0,33.0,30.02,SE,135,0.0,0.0,77,0.00,,,0.02,,2013-01-27 12:21:00,
2013-01-27 04:32:00,39.0,32.0,30.02,SE,135,0.0,0.0,77,0.00,,,0.02,,2013-01-27 12:32:00,
2013-01-27 04:41:00,39.0,32.0,30.02,SE,135,0.0,0.0,77,0.00,,,0.02,,2013-01-27 12:41:00,
2013-01-27 04:52:00,39.0,32.0,30.02,SE,135,0.0,0.0,77,0.00,,,0.02,,2013-01-27 12:52:00,
2013-01-27 05:01:00,38.0,32.0,30.02,SE,135,0.0,0.0,78,0.00,,,0.02,,2013-01-27 13:01:00,
2013-01-27 05:11:00,38.0,32.0,30.02,SE,135,0.0,0.0,78,0.00,,,0.02,,2013-01-27 13:11:00,
2013-01-27 05:22:00,38.0,32.0,30.02,SE,135,0.0,0.0,78,0.00,,,0.02,,2013-01-27 13:22:00,
2013-01-27 05:31:00,37.0,31.0,30.03,SE,135,0.0,0.0,78,0.00,,,0.02,,2013-01-27 13:31:00,
2013-01-27 05:41:00,37.0,31.0,30.03,SE,135,0.0,0.0,78,0.00,,,0.02,,2013-01-27 13:41:00,
2013-01-27 05:52:00,37.0,31.0,30.03,SE,135,0.0,0.0,78,0.00,,,0.02,,2013-01-27 13:52:00,
2013-01-27 06:01:00,37.0,31.0,30.04,SE,135,0.0,0.0,79,0.00,,,0.02,,2013-01-27 14:01:00,
2013-01-27 06:11:00,37.0,31.0,30.04,SE,135,0.0,0.0,79,0.00,,,0.02,,2013-01-27 14:11:00,
2013-01-27 06:21:00,36.0,30.0,30.04,SE,135,0.0,0.0,79,0.00,,,0.02,,2013-01-27 14:21:00,
2013-01-27 06:32:00,36.0,30.0,30.04,SE,135,0.0,0.0,79,0.00,,,0.02,,2013-01-27 14:32:00,
2013-01-27 06:42:00,36.0,30.0,30.04,SE,135,0.0,0.0,79,0.00,,,0.02,,2013-01-27 14:42:00,
2013-01-27 06:52:00,35.0,29.0,30.05,SE,135,0.0,0.0,79,0.00,,,0.02,,2013-01-27 14:52:00,
2013-01-27 07:01:00,35.0,29.0,30.05,SE,135,0.0,0.0,79,0.00,,,0.02,,2013-01-27 15:01:00,
2013-01-27 07:21:00,35.0,29.0,30.07,SE,135,0.0,0.0,78,0.00,,,0.02,,2013-01-27 15:21:00,
2013-01-27 07:31:00,34.0,28.0,30.07,SE,135,0.0,0.0,78,0.00,,,0.02,,2013-01-27 15:31:00,
2013-01-27 08:02:00,34.0,28.0,30.07,SSE,158,0.0,0.0,79,0.00,,,0.02,,2013-01-27 16:02:00,
2013-01-27 08:11:00,34.0,28.0,30.07,SSE,158,0.0,0.0,79,0.00,,,0.02,,2013-01-27 16:11:00,
2013-01-27 08:21:00,34.0,28.0,30.07,SSE,158,0.0,0.0,80,0.00,,,0.02,,2013-01-27 16:21:00,
2013-01-27 08:32:00,34.0,29.0,30.08,SSE,158,0.0,0.0,81,0.00,,,0.02,,2013-01-27 16:32:00,
2013-01-27 08:52:00,35.0,30.0,30.08,SSE,158,0.0,0.0,82,0.00,,,0.02,,2013-01-27 16:52:00,
2013-01-27 09:01:00,35.0,30.0,30.09,SSE,158,0.0,0.0,83,0.00,,,0.02,,2013-01-27 17:01:00,
2013-01-27 09:11:00,35.0,30.0,30.09,SSE,158,0.0,0.0,83,0.00,,,0.02,,2013-01-27 17:11:00,
2013-01-27 09:21:00,37.0,33.0,30.09,SSE,158,0.0,0.0,84,0.00,,,0.02,,2013-01-27 17:21:00,
2013-01-27 09:31:00,38.0,34.0,30.10,SSW,203,0.0,0.0,86,0.00,,,0.02,,2013-01-27 17:31:00,
2013-01-27 09:41:00,38.0,34.0,30.10,SSW,203,0.0,0.0,86,0.00,,,0.02,,2013-01-27 17:41:00,
2013-01-27 09:52:00,39.0,35.0,30.10,West,270,0.0,0.0,87,0.00,,,0.02,,2013-01-27 17:52:00,
2013-01-27 10:02:00,43.0,40.0,30.10,WSW,248,0.0,0.0,90,0.00,,,0.02,,2013-01-27 18:02:00,
2013-01-27 10:11:00,43.0,40.0,30.10,WSW,248,0.0,0.0,90,0.00,,,0.02,,2013-01-27 18:11:00,
2013-01-27 10:22:00,44.0,41.0,30.10,WSW,248,0.0,3.0,89,0.00,,,0.02,,2013-01-27 18:22:00,
2013-01-27 10:32:00,46.0,41.0,30.11,WSW,248,0.0,0.0,84,0.00,,,0.02,,2013-01-27 18:32:00,
2013-01-27 10:41:00,46.0,41.0,30.11,WSW,248,0.0,0.0,84,0.00,,,0.02,,2013-01-27 18:41:00,
2013-01-27 10:51:00,47.0,42.0,30.11,WSW,248,0.0,0.0,82,0.00,,,0.02,,2013-01-27 18:51:00,
2013-01-27 11:01:00,47.0,41.0,30.12,WSW,248,0.0,0.0,81,0.00,,,0.02,,2013-01-27 19:01:00,
2013-01-27 11:11:00,47.0,41.0,30.12,WSW,248,0.0,0.0,81,0.00,,,0.02,,2013-01-27 19:11:00,
2013-01-27 11:21:00,48.0,41.0,30.12,WSW,248,0.0,0.0,77,0.00,,,0.02,,2013-01-27 19:21:00,
2013-01-27 11:31:00,49.0,42.0,30.12,WNW,293,0.0,0.0,76,0.00,,,0.02,,2013-01-27 19:31:00,
2013-01-27 11:41:00,49.0,42.0,30.12,WNW,293,0.0,0.0,76,0.00,,,0.02,,2013-01-27 19:41:00,
2013-01-27 11:52:00,49.0,41.0,30.12,WSW,248,0.0,0.0,74,0.00,,,0.02,,2013-01-27 19:52:00,
2013-01-27 12:02:00,50.0,42.0,30.11,NW,315,0.0,0.0,73,0.00,,,0.02,,2013-01-27 20:02:00,
2013-01-27 12:11:00,50.0,42.0,30.11,NW,315,0.0,0.0,73,0.00,,,0.02,,2013-01-27 20:11:00,
2013-01-27 12:21:00,51.0,42.0,30.11,NW,315,0.0,0.0,71,0.00,,,0.02,,2013-01-27 20:21:00,
2013-01-27 12:32:00,52.0,42.0,30.10,North,0,0.0,4.0,68,0.00,,,0.02,,2013-01-27 20:32:00,
2013-01-27 12:41:00,52.0,42.0,30.10,North,0,0.0,4.0,68,0.00,,,0.02,,2013-01-27 20:41:00,
2013-01-27 12:52:00,54.0,43.0,30.09,NNE,23,0.0,4.0,65,0.00,,,0.02,,2013-01-27 20:52:00,
2013-01-27 13:01:00,55.0,44.0,30.09,North,0,0.0,0.0,67,0.00,,,0.02,,2013-01-27 21:01:00,
2013-01-27 13:11:00,55.0,44.0,30.09,North,0,0.0,0.0,67,0.00,,,0.02,,2013-01-27 21:11:00,
2013-01-27 13:21:00,57.0,44.0,30.09,ESE,113,0.0,5.0,62,0.00,,,0.02,,2013-01-27 21:21:00,
2013-01-27 13:32:00,61.0,45.0,30.08,NW,315,6.0,6.0,55,0.00,,,0.02,,2013-01-27 21:32:00,
2013-01-27 13:52:00,62.0,44.0,30.08,NW,315,0.0,6.0,52,0.00,,,0.02,,2013-01-27 21:52:00,
2013-01-27 14:01:00,62.0,44.0,30.07,North,0,0.0,0.0,51,0.00,,,0.02,,2013-01-27 22:01:00,
2013-01-27 14:21:00,65.0,45.0,30.08,SSE,158,3.0,3.0,48,0.00,,,0.02,,2013-01-27 22:21:00,
2013-01-27 14:31:00,66.0,44.0,30.08,NNW,338,2.0,3.0,45,0.00,,,0.02,,2013-01-27 22:31:00,
2013-01-27 14:52:00,69.0,44.0,30.07,East,90,0.0,2.0,41,0.00,,,0.02,,2013-01-27 22:52:00,
2013-01-27 15:01:00,71.0,42.0,30.07,WNW,293,0.0,0.0,35,0.00,,,0.02,,2013-01-27 23:01:00,
2013-01-27 15:21:00,72.0,42.0,30.07,West,270,0.0,0.0,34,0.00,,,0.02,,2013-01-27 23:21:00,
2013-01-27 15:31:00,72.0,41.0,30.07,NW,315,4.0,4.0,32,0.00,,,0.02,,2013-01-27 23:31:00,
2013-01-27 15:52:00,71.0,39.0,30.07,NNE,23,0.0,4.0,31,0.00,,,0.02,,2013-01-27 23:52:00,
2013-01-27 16:01:00,70.0,38.0,30.07,NW,315,0.0,0.0,31,0.00,,,0.02,,2013-01-28 00:01:00,
2013-01-27 16:21:00,67.0,37.0,30.07,ESE,113,0.0,0.0,33,0.00,,,0.02,,2013-01-28 00:21:00,
2013-01-27 16:32:00,62.0,35.0,30.06,NW,315,4.0,4.0,36,0.00,,,0.02,,2013-01-28 00:32:00,
2013-01-27 16:51:00,58.0,33.0,30.06,NNW,338,0.0,0.0,39,0.00,,,0.02,,2013-01-28 00:51:00,
2013-01-27 17:01:00,57.0,34.0,30.06,East,90,0.0,2.0,41,0.00,,,0.02,,2013-01-28 01:01:00,
2013-01-27 17:11:00,57.0,34.0,30.06,East,90,0.0,2.0,41,0.00,,,0.02,,2013-01-28 01:11:00,
2013-01-27 17:21:00,56.0,33.0,30.06,ESE,113,3.0,3.0,42,0.00,,,0.02,,2013-01-28 01:21:00,
2013-01-27 17:32:00,54.0,32.0,30.07,SE,135,0.0,0.0,43,0.00,,,0.02,,2013-01-28 01:32:00,
2013-01-27 17:42:00,54.0,32.0,30.07,SE,135,0.0,0.0,43,0.00,,,0.02,,2013-01-28 01:42:00,
2013-01-27 17:51:00,53.0,32.0,30.07,SE,135,0.0,0.0,44,0.00,,,0.02,,2013-01-28 01:51:00,
2013-01-27 18:01:00,52.0,31.0,30.07,SE,135,0.0,0.0,45,0.00,,,0.02,,2013-01-28 02:01:00,
2013-01-27 18:11:00,52.0,31.0,30.07,SE,135,0.0,0.0,45,0.00,,,0.02,,2013-01-28 02:11:00,
2013-01-27 18:21:00,50.0,30.0,30.08,SE,135,0.0,0.0,46,0.00,,,0.02,,2013-01-28 02:21:00,
2013-01-27 18:32:00,49.0,30.0,30.07,SE,135,0.0,0.0,48,0.00,,,0.02,,2013-01-28 02:32:00,
2013-01-27 18:41:00,49.0,30.0,30.07,SE,135,0.0,0.0,48,0.00,,,0.02,,2013-01-28 02:41:00,
2013-01-27 18:52:00,47.0,29.0,30.07,SSE,158,0.0,0.0,49,0.00,,,0.02,,2013-01-28 02:52:00,
2013-01-27 19:01:00,46.0,30.0,30.07,SSE,158,0.0,0.0,53,0.00,,,0.02,,2013-01-28 03:01:00,
2013-01-27 19:11:00,46.0,30.0,30.07,SSE,158,0.0,0.0,53,0.00,,,0.02,,2013-01-28 03:11:00,
2013-01-27 19:21:00,46.0,30.0,30.08,SSE,158,0.0,0.0,54,0.00,,,0.02,,2013-01-28 03:21:00,
2013-01-27 19:32:00,44.0,29.0,30.08,SSE,158,0.0,0.0,56,0.00,,,0.02,,2013-01-28 03:32:00,
2013-01-27 19:41:00,44.0,29.0,30.08,SSE,158,0.0,0.0,56,0.00,,,0.02,,2013-01-28 03:41:00,
2013-01-27 19:52:00,43.0,30.0,30.08,SSE,158,0.0,0.0,60,0.00,,,0.02,,2013-01-28 03:52:00,
2013-01-27 20:01:00,43.0,30.0,30.09,SSE,158,0.0,0.0,60,0.00,,,0.02,,2013-01-28 04:01:00,
2013-01-27 20:11:00,43.0,30.0,30.09,SSE,158,0.0,0.0,60,0.00,,,0.02,,2013-01-28 04:11:00,
2013-01-27 20:21:00,42.0,29.0,30.09,SSE,158,0.0,0.0,59,0.00,,,0.02,,2013-01-28 04:21:00,
2013-01-27 20:31:00,42.0,29.0,30.09,SSE,158,0.0,0.0,59,0.00,,,0.02,,2013-01-28 04:31:00,
2013-01-27 20:41:00,42.0,29.0,30.09,SSE,158,0.0,0.0,59,0.00,,,0.02,,2013-01-28 04:41:00,
2013-01-27 20:52:00,42.0,30.0,30.08,SSE,158,0.0,0.0,61,0.00,,,0.02,,2013-01-28 04:52:00,
2013-01-27 21:03:00,41.0,29.0,30.08,SSE,158,0.0,0.0,62,0.00,,,0.02,,2013-01-28 05:03:00,
2013-01-27 21:11:00,41.0,29.0,30.08,SSE,158,0.0,0.0,62,0.00,,,0.02,,2013-01-28 05:11:00,
2013-01-27 21:21:00,41.0,29.0,30.08,SSE,158,0.0,0.0,62,0.00,,,0.02,,2013-01-28 05:21:00,
2013-01-27 21:31:00,41.0,29.0,30.08,SSE,158,0.0,0.0,62,0.00,,,0.02,,2013-01-28 05:31:00,
2013-01-27 21:41:00,41.0,29.0,30.08,SSE,158,0.0,0.0,62,0.00,,,0.02,,2013-01-28 05:41:00,
2013-01-27 21:52:00,41.0,29.0,30.08,SSE,158,0.0,0.0,63,0.00,,,0.02,,2013-01-28 05:52:00,
2013-01-27 22:01:00,40.0,28.0,30.08,SSE,158,0.0,0.0,63,0.00,,,0.02,,2013-01-28 06:01:00,
2013-01-27 22:21:00,40.0,29.0,30.09,SSE,158,0.0,0.0,65,0.00,,,0.02,,2013-01-28 06:21:00,
2013-01-27 22:31:00,40.0,30.0,30.09,SSE,158,0.0,0.0,68,0.00,,,0.02,,2013-01-28 06:31:00,
2013-01-27 22:41:00,40.0,30.0,30.09,SSE,158,0.0,0.0,68,0.00,,,0.02,,2013-01-28 06:41:00,
2013-01-27 22:52:00,40.0,30.0,30.08,South,180,0.0,0.0,68,0.00,,,0.02,,2013-01-28 06:52:00,
2013-01-27 23:02:00,40.0,30.0,30.08,SSE,158,0.0,0.0,68,0.00,,,0.02,,2013-01-28 07:02:00,
2013-01-27 23:11:00,40.0,30.0,30.08,SSE,158,0.0,0.0,68,0.00,,,0.02,,2013-01-28 07:11:00,
2013-01-27 23:21:00,40.0,30.0,30.09,SSE,158,0.0,0.0,68,0.00,,,0.02,,2013-01-28 07:21:00,
2013-01-27 23:31:00,40.0,30.0,30.09,SSE,158,0.0,0.0,68,0.00,,,0.02,,2013-01-28 07:31:00,
2013-01-27 23:41:00,40.0,30.0,30.09,SSE,158,0.0,0.0,68,0.00,,,0.02,,2013-01-28 07:41:00,
2013-01-27 23:51:00,39.0,29.0,30.10,SSE,158,0.0,0.0,67,0.00,,,0.02,,2013-01-28 07:51:00,